FLOCK 4BE-15

Last updated on Mon Sep 16 2024 00:02:03 GMT+0000 (Coordinated Universal Time)

1 60491U 24149Z 24258.90226854 .00018511 00000+0 89982-3 0 9991 2 60491 97.4361 333.9847 0005638 25.6515 334.4998 15.18461384 4415
UTC large
Height (km)
Speed (km/s)
/
Latitude / Longitude
Inclination (degrees)
Orbital Period (minutes)
Azimuth
Elevation
Range (km)
Doppler Factor

Next 0 passes for location: London (51.5072 / 0.1276)

Sorry there are no passes over London.